Location: Bazugues
(43.4465°N, 0.3432°E)
Time: 14:56:21
(UTC+00:00)

Cosmos 1603 - Pass Details

Date: 12 January 2026
Orbit: 831 x 857 km, 71.0° (Epoch: 18 February)

Event Time Altitude Azimuth Distance (km) Brightness Sun altitude
Rises 18:44:58 0° 209° (SSW) 3,391 7.4 -21.3°
Reaches altitude 10° 18:47:25 10° 212° (SSW) 2,456 6.6 -21.8°
Maximum altitude 18:53:03 71° 296° (WNW) 887 3.9 -22.8°
Enters shadow 18:56:25 25° 16° (NNE) 1,641 5.0 -23.4°
